Cedar Rapids, IA

6:05 PM CST on December 08, 2019 (GMT -0600)
The Eastern Iowa Airport

Weather History for KCID - August, 2019

Change the Weather History Date:

Wednesday, August 28, 2019

  Actual Average Record
Temperature  
Mean Temperature 65 °F 69 °F  
Max Temperature 76 °F 80 °F 96 °F (1955)
Min Temperature 53 °F 59 °F 40 °F (1986)
Degree Days  
Heating Degree Days 0 1  
Month to date heating degree days 2 9  
Since 1 June heating degree days 13 42  
Since 1 July heating degree days 2 13  
Cooling Degree Days 0 5  
Month to date cooling degree days 147 185  
Year to date cooling degree days 649 652  
Since 1 June cooling degree days 621 603  
Growing Degree Days 14 (Base 50)    
Moisture  
Dew Point 53 °F    
Average Humidity 73    
Maximum Humidity 100    
Minimum Humidity 46    
Precipitation  
Precipitation 0.00 in 0.14 in 2.17 in (1957)
Month to date precipitation 5.19 4.07  
Year to date precipitation 27.78 24.89  
Sea Level Pressure  
Sea Level Pressure 29.98 in    
Wind  
Wind Speed 11 mph (West)    
Max Wind Speed 24 mph    
Max Gust Speed 36 mph    
Visibility 10 miles    
Events      
T = Trace of Precipitation, MM = Missing Value Source: NWS Daily Summary

Daily Weather History Graph

Daily Weather History Graph

Search for Another Location

Airport or City:

Astronomy

Aug. 28, 2019 Rise Set
Actual Time 6:28 AM CDT 7:47 PM CDT
Civil Twilight 5:59 AM CDT 8:16 PM CDT
Nautical Twilight 5:24 AM CDT 8:50 PM CDT
Astronomical Twilight 4:47 AM CDT 9:27 PM CDT
Moon 3:57 AM CDT (8/28) 7:01 PM CDT (8/28)
Length of Visible Light 14h 16m
Length of Day
13h 18m
Waning Crescent, 4% of the Moon is Illuminated
Aug 28
Waning Crescent
Aug 30
New
Sep 5
First Quarter
Sep 13
Full
Sep 21
Last Quarter

Hourly Weather History & Observations

Time (CDT) Temp. Dew Point Humidity Pressure Visibility Wind Dir Wind Speed Gust Speed Precip Events Conditions
1:52 AM 54.0 °F 51.1 °F 90% 29.94 in 10.0 mi WSW 8.1 mph - N/A   Clear
2:52 AM 54.0 °F 51.1 °F 90% 29.94 in 10.0 mi WSW 8.1 mph - N/A   Clear
3:52 AM 54.0 °F 51.1 °F 90% 29.94 in 10.0 mi WSW 9.2 mph - N/A   Clear
4:52 AM 54.0 °F 51.1 °F 90% 29.95 in 10.0 mi WSW 9.2 mph - N/A   Clear
5:52 AM 53.1 °F 50.0 °F 89% 29.97 in 10.0 mi WSW 9.2 mph - N/A   Clear
6:52 AM 53.1 °F 50.0 °F 89% 29.99 in 10.0 mi WSW 10.4 mph - N/A   Clear
7:52 AM 55.9 °F 52.0 °F 87% 30.00 in 10.0 mi West 8.1 mph - N/A   Clear
8:52 AM 61.0 °F 53.1 °F 75% 30.01 in 10.0 mi West 12.7 mph - N/A   Clear
9:52 AM 66.0 °F 54.0 °F 65% 30.00 in 10.0 mi WNW 16.1 mph - N/A   Clear
10:52 AM 68.0 °F 54.0 °F 61% 30.01 in 10.0 mi West 16.1 mph - N/A   Clear
11:52 AM 71.1 °F 54.0 °F 55% 30.01 in 10.0 mi WNW 19.6 mph - N/A   Clear
12:52 PM 73.0 °F 55.0 °F 53% 30.00 in 10.0 mi West 19.6 mph 31.1 mph N/A   Partly Cloudy
1:52 PM 73.9 °F 54.0 °F 50% 29.99 in 10.0 mi WNW 20.7 mph 31.1 mph N/A   Partly Cloudy
2:52 PM 73.9 °F 54.0 °F 50% 29.99 in 10.0 mi WNW 18.4 mph - N/A   Scattered Clouds
3:52 PM 75.0 °F 54.0 °F 48% 29.98 in 10.0 mi WNW 17.3 mph - N/A   Clear
4:52 PM 75.0 °F 55.0 °F 50% 29.97 in 10.0 mi WNW 13.8 mph - N/A   Clear
5:52 PM 73.9 °F 54.0 °F 50% 29.97 in 10.0 mi WNW 11.5 mph - N/A   Clear
6:52 PM 71.1 °F 55.9 °F 59% 29.96 in 10.0 mi West 6.9 mph - N/A   Clear
7:52 PM 62.1 °F 57.0 °F 84% 29.96 in 10.0 mi West 6.9 mph - N/A   Clear
8:52 PM 62.1 °F 55.0 °F 78% 29.97 in 10.0 mi WSW 5.8 mph - N/A   Clear
9:52 PM 57.0 °F 55.0 °F 93% 29.97 in 10.0 mi SW 3.5 mph - N/A   Clear
10:52 PM 57.0 °F 55.0 °F 93% 29.98 in 10.0 mi Calm Calm - N/A   Clear
11:52 PM 55.9 °F 55.0 °F 97% 29.97 in 10.0 mi Calm Calm - N/A   Clear